Regional Weather Roundup
Issued by NWS

Home | Current Version | Previous Version | Graphics & Text | Print | Product List | Glossary On
Versions: 1 2 3 4 5 6 7 8 9 10 11 12 13 14 15 16 17 18 19 20 21 22 23 24 25 26 27 28 29 30 31 32 33 34 35 36 37 38 39 40 41 42 43 44 45 46 47 48 49 50
000
ASUS43 KMKX 222111
RWRWI

WISCONSIN REGIONAL WEATHER ROUNDUP
NATIONAL WEATHER SERVICE MILWAUKEE/SULLIVAN WI
300 PM CST WED NOV 22 2017

NOTE: "FAIR" INDICATES FEW OR NO CLOUDS BELOW 12,000 FEET WITH NO
SIGNIFICANT WEATHER AND/OR OBSTRUCTIONS TO VISIBILITY.

WIZ001-002-006>008-014>016-023>028-222200-
NORTHWEST WISCONSIN

CITY           SKY/WX    TMP DP  RH WIND       PRES   REMARKS
SUPERIOR ARPT  CLOUDY    25  12  58 SW12      30.12F WCI  14
ASHLAND        CLOUDY    25  12  58 S10       30.12F WCI  15
HAYWARD        CLOUDY    23  12  62 S9        30.13F WCI  13
SIREN          LGT SNOW  23  18  82 S7        30.14F WCI  14
CUMBERLAND     LGT SNOW  23  18  80 S9        30.13S WCI  13
RICE LAKE      LGT SNOW  24  15  69 S7        30.16F WCI  16
CHETEK         CLOUDY    24  13  63 S7        30.16F WCI  15
LADYSMITH      CLOUDY    24  12  61 S6        30.16F WCI  17
EAU CLAIRE     CLOUDY    25  11  55 SW10      30.17F WCI  15
MENOMONIE      FLURRIES  26  13  57 S9        30.18F WCI  17
NEW RICHMOND   LGT SNOW  23  19  83 SE7       30.14F WCI  15
OSCEOLA        FLURRIES  23  19  85 S8        30.17F WCI  14
$$

WIZ003>005-009-010-017-018-222200-
NORTH CENTRAL WISCONSIN

CITY           SKY/WX    TMP DP  RH WIND       PRES   REMARKS
MANITOWISH WTR CLOUDY    24  11  60 SW12      30.08F WCI  12
ARBOR VITAE    CLOUDY    26  14  59 SW8       30.09F WCI  18
WOODRUFF       CLOUDY    26  14  59 SW8       30.09F WCI  18
RHINELANDER    CLOUDY    25  12  58 SW10      30.11F WCI  15
EAGLE RIVER    CLOUDY    25  10  54 SW6       30.09F WCI  18
LAND O LAKES   CLOUDY    25  12  58 S6        30.10F WCI  18
PHILLIPS       CLOUDY    23  12  62 SW9       30.12S WCI  13
TOMAHAWK       CLOUDY    25  12  58 CALM      30.13S
MEDFORD        CLOUDY    23  12  63 SW8       30.14S WCI  14
MERRILL        MOSUNNY   26  13  57 S3        30.15S
$$

WIZ029-030-035-036-043>047-222200-
CENTRAL WISCONSIN

CITY           SKY/WX    TMP DP  RH WIND       PRES   REMARKS
WAUSAU         MOSUNNY   25  13  60 SW8       30.15F WCI  16
MOSINEE        CLOUDY    25  12  58 S7        30.17F WCI  17
MARSHFIELD     MOSUNNY   26  11  52 S9        30.15F WCI  17
STEVENS POINT  CLOUDY    25  11  54 SW6       30.18S WCI  18
WAUPACA        MOSUNNY   31  13  47 SW7       30.21S WCI  24
WAUTOMA        MOSUNNY   29  14  53 SW8       30.21F WCI  21
WISC RAPIDS    CLOUDY    28  13  53 SW8       30.20F WCI  20
CAMP DOUGLAS   CLOUDY    28  12  50 S7        30.19F WCI  21
$$

WIZ011>013-019>022-031-037>040-048>050-222200-
NORTHEAST WISCONSIN

CITY           SKY/WX    TMP DP  RH WIND       PRES   REMARKS
ANTIGO         CLOUDY    25  12  57 SW7       30.14S WCI  17
SHAWANO        MOSUNNY   31  13  47 SW8       30.19F WCI  23
OCONTO         CLOUDY    28  13  52 SW9       30.21S WCI  20
STURGEON BAY   MOCLDY    27  16  63 SW7       30.20F WCI  19
GREEN BAY      MOSUNNY   29  16  58 SW10      30.21F WCI  20
MANITOWOC      MOSUNNY   29  16  58 SW6       30.22F WCI  23
APPLETON       PTSUNNY   28  10  47 SW9       30.19F WCI  20
CLINTONVILLE   CLOUDY    28  10  47 SW7       30.20S WCI  21
OSHKOSH        CLOUDY    29  14  53 SW7       30.20F WCI  22
$$

WIZ032>034-041-042-053>061-222200-
SOUTHWEST WISCONSIN

CITY           SKY/WX    TMP DP  RH WIND       PRES   REMARKS
LA CROSSE      CLOUDY    31  14  49 S8        30.21F WCI  23
SPARTA         PTSUNNY   29  14  52 SW7       30.21F WCI  22
VIROQUA        CLOUDY    28  18  65 SW7       30.19F WCI  21
BOSCOBEL       MOSUNNY   32  13  45 SW7       30.24F WCI  26
PRAIRIE DU CHI CLOUDY    32  12  43 S6        30.23F WCI  26
PLATTEVILLE    MOSUNNY   32  17  53 S10       30.22F WCI  23
$$

WIZ056-057-062-063-064-067-068-222200-
SOUTH CENTRAL WISCONSIN

CITY           SKY/WX    TMP DP  RH WIND       PRES   REMARKS
REEDSBURG      MOSUNNY   29  14  52 SW6       30.20F WCI  23
BARABOO/DELLS  MOSUNNY   29  14  52 SW8       30.20F WCI  21
LONE ROCK      CLOUDY    32  15  49 W9        30.23F WCI  24
MINERAL POINT  MOSUNNY   32  18  55 SW6       30.20F WCI  26
MADISON        PTSUNNY   31  15  52 SW7       30.21F WCI  24
MIDDLETON      MOSUNNY   32  15  49 SW7       30.22S WCI  26
WATERTOWN      CLOUDY    31  16  54 SW8       30.22F WCI  23
MONROE         CLOUDY    32  16  51 SW9       30.22F WCI  24
JANESVILLE     PTSUNNY   34  16  47 SW9       30.23F WCI  26
$$

WIZ051-052-058>065-066-070>072-222200-
SOUTHEAST WISCONSIN

CITY           SKY/WX    TMP DP  RH WIND       PRES   REMARKS
MILWAUKEE      CLOUDY    33  15  47 SW8       30.24F WCI  26
WAUKESHA       SUNNY     30  12  47 W7        30.23F WCI  23
MILWAUKEE/TIMM SUNNY     32  10  40 SW7       30.24F WCI  26
RACINE         CLOUDY    33  15  47 SW13      30.26F WCI  24
BURLINGTON     SUNNY     34  20  57 SW8       30.24F WCI  27
KENOSHA        CLOUDY    33  15  47 SW9       30.24F WCI  25
FOND DU LAC    MOSUNNY   30  13  49 SW9       30.21F WCI  22
SHEBOYGAN      CLOUDY    30  15  53 SW6       30.22F WCI  24
WEST BEND      CLOUDY    30  14  51 W8        30.22F WCI  23
JUNEAU         MOSUNNY   29  14  53 SW6       30.22F WCI  23
$$

LSZ147-162-222200-
LAKE SUPERIOR

STATION/POSITION TIME  TEMP    WIND        PRES    WAVE
                       AIR SEA DIR/SP/G            HT/PER
                 (UTC) (F)     (DEG/KT/KT) (MB)    (FT/S)
DEVILS ISLAND    2100   25     200/  9/ 11 1020.3F
SAXON HARBOR     2030   27     190/ 10/ 14 1020.0F
$$

LMZ867-665-643>646-222200-
LAKE MICHIGAN

STATION/POSITION TIME  TEMP    WIND        PRES    WAVE
                       AIR SEA DIR/SP/G            HT/PER
                 (UTC) (F)     (DEG/KT/KT) (MB)    (FT/S)
N MID LAKE BUOY  2050   31 47  220/ 12/ 19 1023.9F
NORTHPORT PIER   2054   28     200/  4/ 11 1022.4F
KEWAUNEE LAKESHO 2042   29     240/  4/  7 1022.4F
SHEBOYGAN LAKESH 2100   30     190/  8/  9 1024.0F
PORT WASHINGTON  2030   32     270/  5/ 11 1024.7F
MILWAUKEE LAKESH 2050   32     230/  6/  7   N/A
S MID LAKE BUOY  1950   31 47  280/  8/ 12 1025.9F   2/ 6
KENOSHA   LAKESH 2100   33     220/  7/  9 1024.4
$$

TC  - TEMPERATURE IN CELSIUS
VSB - VISIBILITY IN STATUTE MILES
WCI - WIND CHILL INDEX
HX  - HEAT INDEX





USA.gov is the U.S. government's official web portal to all federal, state and local government web resources and services.